Home > Weather > Yekaterinburg > Past weeks

Flag for Russia Past Weather in Yekaterinburg, Russia — Yesterday and Last 2 Weeks

Now
68 °F

Passing clouds.


Feels Like: 68 °F
Forecast: 45 / 61 °F
Wind: 15 mph from Southwest

Location: Ekaterinburg

Current Time: Aug 28, 2016 at 12:11:45 PM

Latest Report: Aug 28, 2016 at 11:30 AM


Visibility: N/A

Pressure: 29.83 "Hg

Humidity: 53%

Dew Point: 50 °F

Location of YekaterinburgLocation

Past Weather in Yekaterinburg — Graph

°F

Yekaterinburg Temperature Yesterday

Maximum temperature yesterday: 70 °F (at 2:00 PM)
Minimum temperature yesterday: 50 °F (at 10:30 PM)
Average temperature yesterday: 61 °F

High & Low Weather Summary for the Past Weeks

 TemperatureHumidityPressure
High95 °F (Aug 16, 2:30 PM)100% (Aug 14, 10:00 PM)30.42 "Hg (Aug 14, 10:00 PM)
Low41 °F (Aug 28, 4:30 AM)19% (Aug 16, 2:30 PM)29.83 "Hg (Aug 27, 1:30 AM)
Average71 °F70%30.16 "Hg
* Reported Aug 13 11:00 AM — Aug 28 11:00 AM, Yekaterinburg, Weather by CustomWeather, © 2016

Note: Actual official high and low records may vary slightly from our data, if they occured in-between our weather recording intervals... More about our weather records

Advertising

Yekaterinburg Weather History for the Previous 24 Hours

Scroll right to see more
 ConditionsComfort  
Time TempWeatherWind HumidityBarometerVisibility
11:00 AM
Sun, Aug 28
66 °FPassing clouds.13 mph60%29.83 "HgN/A
10:30 AM66 °FSunny.10 mph60%29.83 "Hg10 mi
10:00 AM64 °FPassing clouds.10 mph64%29.86 "HgN/A
9:30 AM63 °FPassing clouds.3 mph77%29.86 "HgN/A
9:00 AM59 °FSunny.1 mph82%29.86 "Hg10 mi
8:30 AM55 °FSunny.1 mph100%29.89 "Hg10 mi
8:00 AM52 °FSunny.3 mph100%29.89 "Hg10 mi
7:30 AM50 °FSunny.3 mph100%29.89 "Hg10 mi
7:00 AM46 °FClear.1 mph100%29.89 "Hg6 mi
6:30 AM43 °FFog.1 mph100%29.89 "Hg2 mi
6:00 AM43 °FSleet. Fog.No wind100%29.92 "HgN/A
5:30 AM43 °FFog.1 mph100%29.92 "HgN/A
5:00 AM41 °FSleet. Fog.1 mph100%29.92 "Hg5 mi
4:30 AM41 °FClear.1 mph100%29.92 "Hg6 mi
4:00 AM43 °FSleet. Overcast.1 mph100%29.92 "Hg4 mi
3:30 AM45 °FClear.3 mph100%29.92 "Hg10 mi
3:00 AM45 °FPassing clouds.3 mph100%29.92 "HgN/A
2:30 AM46 °FClear.1 mph100%29.92 "Hg10 mi
2:00 AM45 °FClear.1 mph100%29.92 "Hg10 mi
1:30 AM46 °FClear.1 mph100%29.92 "Hg10 mi
1:00 AM46 °FClear.1 mph100%29.92 "Hg10 mi
12:30 AM48 °FPassing clouds.3 mph100%29.92 "HgN/A
12:00 AM48 °FPassing clouds.3 mph100%29.92 "HgN/A
11:30 PM
Sat, Aug 27
50 °FClear.3 mph100%29.92 "Hg10 mi
11:00 PM50 °FClear.3 mph100%29.92 "Hg10 mi
10:30 PM50 °FClear.6 mph100%29.92 "Hg10 mi
10:00 PM52 °FClear.6 mph100%29.92 "Hg10 mi
9:30 PM54 °FPassing clouds.3 mph94%29.89 "Hg4 mi
9:00 PM54 °FPassing clouds.1 mph100%29.89 "Hg6 mi
8:30 PM55 °FPassing clouds.3 mph100%29.89 "HgN/A
8:00 PM61 °FScattered clouds.3 mph83%29.89 "HgN/A
7:30 PM61 °FPartly sunny.6 mph77%29.89 "HgN/A
7:00 PM63 °FPartly sunny.6 mph64%29.89 "HgN/A
6:30 PM64 °FPartly sunny.10 mph56%29.89 "HgN/A
6:00 PM64 °FPartly sunny.8 mph64%29.86 "HgN/A
5:30 PM64 °FPartly sunny.10 mph64%29.86 "HgN/A
5:00 PM68 °FPartly sunny.15 mph49%29.86 "HgN/A
4:30 PM70 °FPartly sunny.10 mph46%29.83 "HgN/A
4:00 PM70 °FPartly sunny.13 mph50%29.86 "HgN/A
3:30 PM68 °FPartly sunny.8 mph53%29.86 "HgN/A
3:00 PM68 °FPartly sunny.10 mph53%29.86 "HgN/A
2:30 PM68 °FPartly sunny.13 mph49%29.86 "HgN/A
2:00 PM70 °FPartly sunny.10 mph50%29.86 "HgN/A
1:30 PM68 °FPartly sunny.8 mph56%29.86 "HgN/A
1:00 PM66 °FPartly sunny.10 mph60%29.86 "HgN/A
12:30 PM66 °FPartly sunny.13 mph60%29.86 "HgN/A
12:00 PM64 °FPartly sunny.10 mph64%29.86 "HgN/A
Weather by CustomWeather, © 2016

See weather overviewHow to use our weather pages